Content
SEND FEEDBACK

Daily
Averages
Monthly
Summary
United States of America

MARYSVILLE, MICHIGAN


Home > North America > United States > Michigan
Elevation: 578 feet     Latitude: 42 58N     Longitude: 082 25W

WEATHER
 
SELECT A DAY
Number of Records: 194,156;   Date Range: 1/1/95 - 11/23/14
 
SHARE

PRINT THIS DATA

[ ← Previous Day ]
WEATHER ALMANAC - JANUARY 31, 2013
[ Next Day → ]
[ °C ]   °F
Weather ElementAverageHighLow
Temperature24.6 °F53 °F (1:00 pm)17.6 °F (10:59 pm)
Dewpoint17.3 °F51 °F (1:00 pm)10.4 °F (8:10 am)
Humidity74.2 %93 % (12:45 am)46 % (7:00 pm)
Barometer29.56 in29.84 in (10:35 pm)28.69 in (1:00 pm)
Wind Speed17 mph29.9 mph (5:46 am)
Wind Gust43.7 mph (2:00 am)
Weather ElementAverage
Visibility7.2 mi
Wind DirectionW (275 °)

Weather ElementTotal
Precipitation---
Heating Degree Days29.7 (Base 65)
Averaged from 116 records on January 31, 2013
WEATHER CONDITIONS BREAKOUT
WIND DIRECTION BREAKOUT
WEATHER BY HOUR - JANUARY 31, 2013
[ °C ]   °F
Local TimeTemperatureDewpointHumidityBarometerVisibilityWind DirectionWind SpeedGust SpeedPrecipitationEventsConditions
12:07 AM37.4 °F33.8 °F87 %29.15 in9.0 miWest (280°)13.8 mph33.4 mphOvercast
12:12 AM37.4 °F33.8 °F87 %29.15 in9.0 miWest (280°)18.4 mph28.8 mphOvercast
12:19 AM37.4 °F33.8 °F87 %29.15 in9.0 miWest (280°)13.8 mph28.8 mphRainLight Rain
12:33 AM35.6 °F32.0 °F87 %29.17 in9.0 miWNW (290°)20.7 mph33.4 mphOvercast
12:45 AM33.8 °F32.0 °F93 %29.18 in6.0 miWest (280°)21.9 mph29.9 mphRainLight Rain
12:46 AM33.8 °F32.0 °F93 %29.18 in5.0 miWest (280°)21.9 mph29.9 mphRainLight Rain
12:48 AM33.8 °F32.0 °F93 %29.19 in5.0 miWest (280°)16.1 mph29.9 mphRain-SnowLight Snow
12:53 AM33.8 °F32.0 °F93 %29.19 in3.0 miWest (280°)23.0 mph31.1 mphSnowLight Snow
1:00 AM48.0 °F47.0 °F93 %29.33 inSSW (200°)5.8 mph
1:00 AM33.8 °F30.2 °F87 %29.19 in4.0 miWest (270°)19.6 mph31.1 mphSnowLight Snow
1:02 AM33.8 °F30.2 °F87 %29.19 in7.0 miWest (270°)19.6 mph31.1 mphSnowLight Snow
1:06 AM33.8 °F28.4 °F81 %29.20 in9.0 miWest (270°)19.6 mph27.6 mphSnowLight Snow
1:08 AM33.8 °F28.4 °F81 %29.19 in9.0 miWest (270°)21.9 mph31.1 mphOvercast
2:00 AM32.0 °F24.8 °F75 %29.23 in9.0 miWest (280°)24.2 mph43.7 mphOvercast
2:53 AM30.2 °F21.2 °F69 %29.29 in9.0 miWest (270°)25.3 mph36.8 mphSnowLight Snow
3:00 AM28.4 °F19.4 °F69 %29.30 in9.0 miWest (260°)23.0 mph36.8 mphSnowLight Snow
3:14 AM28.4 °F19.4 °F69 %29.31 in9.0 miWest (270°)20.7 mph43.7 mphOvercast
3:18 AM28.4 °F19.4 °F69 %29.32 in9.0 miWest (260°)20.7 mph38.0 mphSnowLight Snow
4:00 AM26.6 °F15.8 °F64 %29.34 in9.0 miWest (280°)25.3 mph36.8 mphSnowLight Snow
4:17 AM26.6 °F15.8 °F64 %29.35 in9.0 miWest (280°)27.6 mph41.4 mphOvercast
4:20 AM26.6 °F15.8 °F64 %29.35 in9.0 miWest (280°)23.0 mph41.4 mphSnowLight Snow
5:00 AM26.6 °F17.6 °F69 %29.37 in9.0 miWest (280°)16.1 mph35.7 mphSnowLight Snow
5:07 AM24.8 °F15.8 °F69 %29.37 in9.0 miWest (260°)19.6 mph39.1 mphOvercast
5:44 AM24.8 °F15.8 °F69 %29.41 in9.0 miWest (280°)16.1 mph29.9 mphSnowLight Snow
5:46 AM24.8 °F14.0 °F64 %29.40 in9.0 miWest (270°)29.9 mph42.6 mphSnowLight Snow
6:00 AM24.8 °F15.8 °F69 %29.42 in9.0 miWest (270°)17.3 mph33.4 mphSnowLight Snow
6:30 AM24.8 °F14.0 °F64 %29.44 in9.0 miWest (270°)27.6 mph39.1 mphOvercast
6:45 AM24.8 °F15.8 °F69 %29.45 in9.0 miWest (270°)25.3 mph33.4 mphSnowLight Snow
6:55 AM23.0 °F17.6 °F80 %29.46 in5.0 miWNW (290°)17.3 mph31.1 mphSnowLight Snow
7:00 AM23.0 °F17.6 °F80 %29.46 in3.0 miWest (280°)17.3 mph31.1 mphSnowLight Snow
7:00 AM50.0 °F49.0 °F93 %29.12 inSouth (180°)6.9 mph
7:01 AM23.0 °F17.6 °F80 %29.46 in2.5 miWest (280°)18.4 mph35.7 mphSnowLight Snow
7:09 AM23.0 °F17.6 °F80 %29.47 in3.0 miWest (270°)18.4 mph35.7 mphSnowLight Snow
7:12 AM23.0 °F17.6 °F80 %29.47 in6.0 miWest (280°)18.4 mph34.5 mphSnowLight Snow
7:35 AM23.0 °F14.0 °F68 %29.48 in9.0 miWest (280°)17.3 mph28.8 mphOvercast
7:47 AM23.0 °F14.0 °F68 %29.48 in9.0 miWest (280°)21.9 mph35.7 mphSnowLight Snow
8:00 AM23.0 °F14.0 °F68 %29.48 in9.0 miWest (280°)18.4 mph34.5 mphSnowLight Snow
8:10 AM23.0 °F10.4 °F59 %29.49 in9.0 miWest (280°)25.3 mph42.6 mphOvercast
9:00 AM24.8 °F10.4 °F54 %29.52 in9.0 miWest (280°)25.3 mph33.4 mphMostly Cloudy
9:20 AM23.0 °F10.4 °F59 %29.54 in9.0 miWest (280°)24.2 mph40.3 mphSnowLight Snow
9:49 AM23.0 °F12.2 °F63 %29.57 in9.0 miWest (270°)13.8 mph32.2 mphOvercast
10:00 AM23.0 °F12.2 °F63 %29.57 in9.0 miWest (280°)25.3 mph33.4 mphOvercast
10:11 AM23.0 °F12.2 °F63 %29.58 in9.0 miWest (280°)19.6 mph36.8 mphSnowLight Snow
10:14 AM23.0 °F14.0 °F68 %29.58 in5.0 miWest (270°)25.3 mph36.8 mphSnowLight Snow
10:22 AM23.0 °F14.0 °F68 %29.58 in7.0 miWest (280°)19.6 mph32.2 mphSnowLight Snow
10:29 AM23.0 °F14.0 °F68 %29.59 in9.0 miWest (280°)15.0 mph28.8 mphOvercast
10:37 AM23.0 °F14.0 °F68 %29.59 in9.0 miWNW (290°)20.7 mph27.6 mphSnowLight Snow
11:00 AM23.0 °F14.0 °F68 %29.61 in9.0 miWest (270°)19.6 mph28.8 mphSnowLight Snow
11:03 AM23.0 °F14.0 °F68 %29.60 in9.0 miWest (280°)19.6 mph33.4 mphOvercast
11:28 AM23.0 °F12.2 °F63 %29.62 in9.0 miWest (280°)17.3 mph28.8 mphSnowLight Snow
11:42 AM23.0 °F12.2 °F63 %29.62 in9.0 miWest (270°)23.0 mph31.1 mphOvercast
12:00 PM23.0 °F14.0 °F68 %29.62 in9.0 miWest (280°)16.1 mph26.5 mphOvercast
12:05 PM23.0 °F14.0 °F68 %29.62 in9.0 miWest (260°)19.6 mph26.5 mphSnowLight Snow
12:20 PM24.8 °F14.0 °F64 %29.62 in9.0 miWest (280°)11.5 mph31.1 mphOvercast
12:23 PM24.8 °F12.2 °F59 %29.62 in9.0 miWest (270°)16.1 mph27.6 mphSnowLight Snow
12:39 PM24.8 °F12.2 °F59 %29.62 in9.0 miWest (260°)18.4 mph27.6 mphOvercast
12:48 PM23.0 °F12.2 °F63 %29.62 in9.0 miWest (270°)17.3 mph25.3 mphSnowLight Snow
1:00 PM23.0 °F10.4 °F59 %29.62 in9.0 miWest (280°)19.6 mph35.7 mphSnowLight Snow
1:00 PM53.0 °F51.0 °F92 %28.69 inSouth (180°)11.5 mph
1:02 PM24.8 °F10.4 °F54 %29.62 in9.0 miWest (270°)19.6 mph35.7 mphOvercast
2:00 PM23.0 °F14.0 °F68 %29.64 in9.0 miWNW (300°)12.7 mph26.5 mphOvercast
2:23 PM23.0 °F14.0 °F68 %29.65 in9.0 miWest (280°)16.1 mph24.2 mphSnowLight Snow
2:40 PM23.0 °F12.2 °F63 %29.66 in9.0 miWest (260°)16.1 mph25.3 mphOvercast
2:42 PM23.0 °F12.2 °F63 %29.66 in9.0 miWest (260°)20.7 mphSnowLight Snow
2:46 PM23.0 °F14.0 °F68 %29.66 in5.0 miWest (280°)13.8 mph26.5 mphSnowLight Snow
3:00 PM23.0 °F17.6 °F80 %29.67 in4.0 miWNW (290°)17.3 mph27.6 mphSnowLight Snow
3:04 PM21.2 °F17.6 °F86 %29.67 in3.0 miWNW (290°)19.6 mph27.6 mphSnowLight Snow
3:07 PM21.2 °F17.6 °F86 %29.68 in2.5 miWNW (290°)17.3 mph27.6 mphSnowLight Snow
3:10 PM21.2 °F17.6 °F86 %29.68 in1.8 miWest (280°)12.7 mph26.5 mphSnowLight Snow
3:19 PM23.0 °F17.6 °F80 %29.68 in2.0 miWest (270°)11.5 mph19.6 mphSnowLight Snow
3:21 PM23.0 °F15.8 °F74 %29.68 in3.0 miWest (260°)17.3 mph24.2 mphSnowLight Snow
3:23 PM23.0 °F15.8 °F74 %29.68 in6.0 miWest (260°)19.6 mph28.8 mphSnowLight Snow
3:25 PM23.0 °F14.0 °F68 %29.68 in9.0 miWest (260°)18.4 mph28.8 mphSnowLight Snow
3:31 PM23.0 °F14.0 °F68 %29.68 in9.0 miWest (260°)16.1 mph28.8 mphOvercast
4:00 PM23.0 °F12.2 °F63 %29.70 in9.0 miWest (280°)12.7 mph29.9 mphOvercast
4:04 PM23.0 °F15.8 °F74 %29.70 in9.0 miWest (280°)12.7 mph25.3 mphSnowLight Snow
4:38 PM23.0 °F12.2 °F63 %29.71 in9.0 miWest (270°)17.3 mph26.5 mphOvercast
4:58 PM23.0 °F12.2 °F63 %29.72 in9.0 miWNW (290°)18.4 mph26.5 mphSnowLight Snow
5:00 PM21.2 °F14.0 °F74 %29.72 in9.0 miWNW (290°)15.0 mph25.3 mphSnowLight Snow
5:02 PM21.2 °F14.0 °F74 %29.72 in5.0 miWest (280°)16.1 mph25.3 mphSnowLight Snow
5:04 PM21.2 °F15.8 °F80 %29.72 in2.5 miWest (280°)13.8 mph25.3 mphSnowLight Snow
5:07 PM21.2 °F15.8 °F80 %29.72 in1.8 miWest (270°)11.5 mph23.0 mphSnowLight Snow
5:12 PM21.2 °F15.8 °F80 %29.72 in2.2 miWest (280°)11.5 mph20.7 mphSnowLight Snow
5:14 PM21.2 °F14.0 °F74 %29.72 in4.0 miWest (260°)11.5 mph18.4 mphSnowLight Snow
5:15 PM21.2 °F14.0 °F74 %29.72 in7.0 miWest (270°)11.5 mph18.4 mphSnowLight Snow
5:22 PM21.2 °F12.2 °F68 %29.73 in9.0 miWest (280°)15.0 mph21.9 mphOvercast
5:36 PM21.2 °F14.0 °F74 %29.73 in9.0 miWNW (300°)12.7 mph24.2 mphSnowLight Snow
5:52 PM21.2 °F15.8 °F80 %29.74 in9.0 miWNW (300°)12.7 mphOvercast
5:56 PM21.2 °F15.8 °F80 %29.74 in9.0 miWNW (290°)11.5 mph17.3 mphSnowLight Snow
6:00 PM21.2 °F14.0 °F74 %29.74 in9.0 miWNW (290°)10.4 mph17.3 mphSnowLight Snow
6:06 PM21.2 °F15.8 °F80 %29.74 in9.0 miWNW (300°)10.4 mphOvercast
6:11 PM21.2 °F15.8 °F80 %29.75 in9.0 miWNW (300°)17.3 mphSnowLight Snow
6:14 PM21.2 °F15.8 °F80 %29.75 in5.0 miWNW (290°)16.1 mph21.9 mphSnowLight Snow
6:18 PM19.4 °F15.8 °F86 %29.75 in2.2 miWNW (290°)16.1 mph23.0 mphSnowLight Snow
6:21 PM19.4 °F15.8 °F86 %29.75 in1.8 miWNW (290°)15.0 mph23.0 mphSnowLight Snow
6:22 PM19.4 °F15.8 °F86 %29.75 in1.8 miWNW (290°)15.0 mph23.0 mphSnowLight Snow
6:33 PM19.4 °F15.8 °F86 %29.75 in1.0 miWest (280°)11.5 mph23.0 mphSnowLight Snow
6:41 PM19.4 °F17.6 °F93 %29.76 in1.8 miWest (270°)13.8 mph20.7 mphSnowLight Snow
6:48 PM19.4 °F15.8 °F86 %29.76 in1.5 miWest (270°)10.4 mph23.0 mphSnowLight Snow
6:51 PM19.4 °F15.8 °F86 %29.76 in2.2 miWest (270°)12.7 mph23.0 mphSnowLight Snow
6:54 PM19.4 °F15.8 °F86 %29.76 in3.0 miWest (270°)12.7 mph18.4 mphSnowLight Snow
6:58 PM19.4 °F15.8 °F86 %29.77 in6.0 miWest (280°)11.5 mph18.4 mphSnowLight Snow
7:00 PM19.4 °F15.8 °F86 %29.77 in9.0 miWest (280°)11.5 mph18.4 mphSnowLight Snow
7:00 PM33.0 °F20.0 °F46 %28.90 inWSW (250°)13.8 mph
7:11 PM19.4 °F14.0 °F80 %29.77 in9.0 miWest (270°)11.5 mph17.3 mphOvercast
8:00 PM19.4 °F12.2 °F74 %29.79 in9.0 miWest (270°)12.7 mph20.7 mphOvercast
9:00 PM19.4 °F14.0 °F80 %29.81 in9.0 miWest (270°)13.8 mph20.7 mphOvercast
9:08 PM19.4 °F12.2 °F74 %29.81 in9.0 miWest (280°)16.1 mphSnowLight Snow
10:00 PM19.4 °F10.4 °F68 %29.83 in9.0 miWest (280°)15.0 mph20.7 mphSnowLight Snow
10:16 PM19.4 °F10.4 °F68 %29.83 in9.0 miWNW (290°)13.8 mph24.2 mphOvercast
10:35 PM19.4 °F10.4 °F68 %29.84 in9.0 miWest (280°)15.0 mph20.7 mphSnowLight Snow
10:59 PM17.6 °F12.2 °F79 %29.84 in5.0 miWest (280°)13.8 mph24.2 mphSnowLight Snow
11:00 PM17.6 °F12.2 °F79 %29.84 in5.0 miWest (280°)12.7 mph24.2 mphSnowLight Snow
11:09 PM17.6 °F12.2 °F79 %29.84 in6.0 miWest (280°)13.8 mph24.2 mphSnowLight Snow
11:38 PM17.6 °F12.2 °F79 %29.84 in9.0 miWest (280°)11.5 mphOvercast
11:41 PM17.6 °F12.2 °F79 %29.84 in9.0 miWNW (290°)10.4 mphSnowLight Snow
Hourly data recorded from CYZR, located miles away from Marysville, Michigan







STORIES FROM OUR PARTNERS